Wetterdaten: aktuell Mittwoch, 27.09.2023 21:00
Datum Zeit Temp. Feuchte Luftdruck Nieders. Wind Richtung Richtung Sonnenschein Solar Taupunkt Windchill Windben
27.09.2023 21:00 16,6 C 84 % 1017,2 hPa 0,0 l/m 0,0 km/h (0 Bft) SO 125 0 min 0 W/m 13,9 C 16,6 C 0,0 km/h (0 Bft)
27.09.2023 20:55 16,7 C 84 % 1017,2 hPa 0,0 l/m 0,0 km/h (0 Bft) SO 125 0 min 0 W/m 14,0 C 16,7 C 0,0 km/h (0 Bft)
27.09.2023 20:50 16,8 C 85 % 1017,3 hPa 0,0 l/m 0,0 km/h (0 Bft) SO 125 0 min 0 W/m 14,3 C 16,8 C 0,0 km/h (0 Bft)
27.09.2023 20:45 16,8 C 84 % 1017,3 hPa 0,0 l/m 0,0 km/h (0 Bft) SO 125 0 min 0 W/m 14,1 C 16,8 C 0,0 km/h (0 Bft)
27.09.2023 20:40 16,7 C 84 % 1017,3 hPa 0,0 l/m 0,0 km/h (0 Bft) SO 125 0 min 0 W/m 14,0 C 16,7 C 0,0 km/h (0 Bft)
27.09.2023 20:35 16,6 C 84 % 1017,3 hPa 0,0 l/m 0,0 km/h (0 Bft) SO 125 0 min 0 W/m 13,9 C 16,6 C 0,0 km/h (0 Bft)
27.09.2023 20:30 16,6 C 84 % 1017,4 hPa 0,0 l/m 0,0 km/h (0 Bft) SO 125 0 min 0 W/m 13,9 C 16,6 C 0,0 km/h (0 Bft)
27.09.2023 20:25 16,7 C 83 % 1017,4 hPa 0,0 l/m 0,0 km/h (0 Bft) SO 125 0 min 0 W/m 13,8 C 16,7 C 0,0 km/h (0 Bft)
27.09.2023 20:20 16,8 C 83 % 1017,4 hPa 0,0 l/m 0,0 km/h (0 Bft) SO 125 0 min 0 W/m 13,9 C 16,8 C 0,0 km/h (0 Bft)
27.09.2023 20:15 16,8 C 83 % 1017,4 hPa 0,0 l/m 0,0 km/h (0 Bft) SO 125 0 min 0 W/m 13,9 C 16,8 C 0,0 km/h (0 Bft)
27.09.2023 20:10 16,9 C 82 % 1017,3 hPa 0,0 l/m 0,0 km/h (0 Bft) SO 125 0 min 0 W/m 13,8 C 16,9 C 0,0 km/h (0 Bft)
27.09.2023 20:05 17,0 C 82 % 1017,4 hPa 0,0 l/m 0,0 km/h (0 Bft) SO 125 0 min 0 W/m 13,9 C 17,0 C 0,0 km/h (0 Bft)
27.09.2023 20:00 17,1 C 81 % 1017,4 hPa 0,0 l/m 0,0 km/h (0 Bft) SO 125 0 min 0 W/m 13,8 C 17,1 C 0,0 km/h (0 Bft)
27.09.2023 19:55 17,3 C 80 % 1017,4 hPa 0,0 l/m 0,0 km/h (0 Bft) SO 125 0 min 0 W/m 13,8 C 17,3 C 0,0 km/h (0 Bft)
27.09.2023 19:50 17,7 C 79 % 1017,5 hPa 0,0 l/m 0,0 km/h (0 Bft) SO 125 0 min 0 W/m 14,0 C 17,7 C 0,0 km/h (0 Bft)
27.09.2023 19:45 17,9 C 79 % 1017,5 hPa 0,0 l/m 0,0 km/h (0 Bft) SO 125 0 min 0 W/m 14,2 C 17,9 C 0,0 km/h (0 Bft)
27.09.2023 19:40 18,2 C 79 % 1017,5 hPa 0,0 l/m 0,0 km/h (0 Bft) SO 125 0 min 0 W/m 14,5 C 18,2 C 0,0 km/h (0 Bft)
27.09.2023 19:35 18,4 C 78 % 1017,5 hPa 0,0 l/m 0,0 km/h (0 Bft) SO 125 0 min 0 W/m 14,5 C 18,4 C 0,0 km/h (0 Bft)
27.09.2023 19:30 18,6 C 77 % 1017,5 hPa 0,0 l/m 0,0 km/h (0 Bft) SO 125 0 min 0 W/m 14,5 C 18,6 C 0,0 km/h (0 Bft)
27.09.2023 19:25 18,8 C 76 % 1017,5 hPa 0,0 l/m 0,0 km/h (0 Bft) SO 125 0 min 0 W/m 14,5 C 18,8 C 0,0 km/h (0 Bft)
27.09.2023 19:20 19,2 C 76 % 1017,5 hPa 0,0 l/m 0,0 km/h (0 Bft) SO 125 0 min 0 W/m 14,9 C 19,2 C 0,0 km/h (0 Bft)
27.09.2023 19:15 19,7 C 74 % 1017,4 hPa 0,0 l/m 0,0 km/h (0 Bft) SO 125 0 min 0 W/m 14,9 C 19,7 C 0,0 km/h (0 Bft)
27.09.2023 19:10 20,1 C 74 % 1017,4 hPa 0,0 l/m 0,0 km/h (0 Bft) SO 125 0 min 0 W/m 15,3 C 20,1 C 0,0 km/h (0 Bft)
27.09.2023 19:05 20,4 C 73 % 1017,4 hPa 0,0 l/m 0,0 km/h (0 Bft) SO 125 0 min 5 W/m 15,4 C 20,4 C 0,0 km/h (0 Bft)
27.09.2023 19:00 20,7 C 72 % 1017,3 hPa 0,0 l/m 0,0 km/h (0 Bft) SO 125 0 min 9 W/m 15,5 C 20,7 C 0,0 km/h (0 Bft)
27.09.2023 18:55 21,1 C 71 % 1017,2 hPa 0,0 l/m 0,0 km/h (0 Bft) SO 125 0 min 11 W/m 15,6 C 21,1 C 0,0 km/h (0 Bft)
27.09.2023 18:50 21,4 C 70 % 1017,1 hPa 0,0 l/m 0,0 km/h (0 Bft) SO 125 0 min 16 W/m 15,7 C 21,4 C 0,0 km/h (0 Bft)
27.09.2023 18:45 21,8 C 70 % 1017,1 hPa 0,0 l/m 0,0 km/h (0 Bft) SO 125 0 min 23 W/m 16,1 C 21,8 C 0,0 km/h (0 Bft)
27.09.2023 18:40 22,1 C 69 % 1017,1 hPa 0,0 l/m 0,0 km/h (0 Bft) SO 125 0 min 25 W/m 16,1 C 22,1 C 0,0 km/h (0 Bft)
27.09.2023 18:35 22,3 C 68 % 1017,1 hPa 0,0 l/m 0,0 km/h (0 Bft) SO 125 0 min 30 W/m 16,1 C 22,3 C 0,0 km/h (0 Bft)
27.09.2023 18:30 22,6 C 67 % 1017,1 hPa 0,0 l/m 0,0 km/h (0 Bft) SO 125 0 min 32 W/m 16,2 C 22,6 C 0,0 km/h (0 Bft)
27.09.2023 18:25 22,8 C 65 % 1017,1 hPa 0,0 l/m 0,0 km/h (0 Bft) SO 125 0 min 37 W/m 15,9 C 22,8 C 0,0 km/h (0 Bft)
27.09.2023 18:20 23,0 C 63 % 1017,1 hPa 0,0 l/m 0,0 km/h (0 Bft) SO 125 0 min 40 W/m 15,6 C 23,0 C 0,0 km/h (0 Bft)
27.09.2023 18:15 23,2 C 62 % 1017,2 hPa 0,0 l/m 0,0 km/h (0 Bft) SO 125 0 min 46 W/m 15,5 C 23,2 C 0,0 km/h (0 Bft)
27.09.2023 18:10 23,4 C 61 % 1017,2 hPa 0,0 l/m 0,0 km/h (0 Bft) SO 125 0 min 44 W/m 15,4 C 23,4 C 0,0 km/h (0 Bft)
27.09.2023 18:05 23,7 C 60 % 1017,3 hPa 0,0 l/m 0,0 km/h (0 Bft) SO 125 0 min 44 W/m 15,5 C 23,7 C 0,0 km/h (0 Bft)
27.09.2023 18:00 23,9 C 60 % 1017,3 hPa 0,0 l/m 0,0 km/h (0 Bft) SO 125 0 min 47 W/m 15,7 C 23,9 C 0,0 km/h (0 Bft)
27.09.2023 17:55 24,3 C 58 % 1017,2 hPa 0,0 l/m 0,0 km/h (0 Bft) SO 125 0 min 83 W/m 15,5 C 24,3 C 0,0 km/h (0 Bft)
27.09.2023 17:50 24,6 C 57 % 1017,2 hPa 0,0 l/m 0,0 km/h (0 Bft) SO 125 0 min 88 W/m 15,5 C 24,6 C 0,0 km/h (0 Bft)
27.09.2023 17:45 24,8 C 56 % 1017,3 hPa 0,0 l/m 0,0 km/h (0 Bft) SO 125 0 min 67 W/m 15,4 C 24,8 C 0,0 km/h (0 Bft)
27.09.2023 17:40 24,9 C 54 % 1017,3 hPa 0,0 l/m 0,0 km/h (0 Bft) SO 125 0 min 97 W/m 14,9 C 24,9 C 0,0 km/h (0 Bft)
27.09.2023 17:35 24,9 C 53 % 1017,3 hPa 0,0 l/m 0,0 km/h (0 Bft) SO 125 0 min 120 W/m 14,6 C 24,9 C 0,0 km/h (0 Bft)
27.09.2023 17:30 25,2 C 52 % 1017,3 hPa 0,0 l/m 0,0 km/h (0 Bft) SO 125 0 min 130 W/m 14,6 C 25,2 C 0,0 km/h (0 Bft)
27.09.2023 17:25 25,3 C 53 % 1017,3 hPa 0,0 l/m 0,0 km/h (0 Bft) SO 125 0 min 132 W/m 15,0 C 25,3 C 0,0 km/h (0 Bft)
27.09.2023 17:20 25,4 C 52 % 1017,4 hPa 0,0 l/m 0,0 km/h (0 Bft) SO 125 0 min 123 W/m 14,8 C 25,4 C 0,0 km/h (0 Bft)
27.09.2023 17:15 25,4 C 53 % 1017,4 hPa 0,0 l/m 0,0 km/h (0 Bft) SO 125 5 min 176 W/m 15,1 C 25,4 C 0,0 km/h (0 Bft)
27.09.2023 17:10 25,3 C 53 % 1017,5 hPa 0,0 l/m 0,0 km/h (0 Bft) SO 125 5 min 195 W/m 15,0 C 25,3 C 0,0 km/h (0 Bft)
27.09.2023 17:05 25,3 C 53 % 1017,5 hPa 0,0 l/m 0,0 km/h (0 Bft) SO 125 5 min 232 W/m 15,0 C 25,3 C 0,0 km/h (0 Bft)
27.09.2023 17:00 25,4 C 53 % 1017,6 hPa 0,0 l/m 0,0 km/h (0 Bft) O-SO 123 5 min 248 W/m 15,1 C 25,4 C 0,0 km/h (0 Bft)
27.09.2023 16:55 25,3 C 52 % 1017,6 hPa 0,0 l/m 0,0 km/h (0 Bft) SO 135 5 min 260 W/m 14,7 C 25,3 C 0,0 km/h (0 Bft)
27.09.2023 16:50 25,2 C 53 % 1017,7 hPa 0,0 l/m 0,0 km/h (0 Bft) SO 135 5 min 269 W/m 14,9 C 25,2 C 0,0 km/h (0 Bft)
27.09.2023 16:45 25,1 C 52 % 1017,6 hPa 0,0 l/m 0,0 km/h (0 Bft) SO 135 5 min 294 W/m 14,5 C 25,1 C 0,0 km/h (0 Bft)
27.09.2023 16:40 25,1 C 52 % 1017,7 hPa 0,0 l/m 0,0 km/h (0 Bft) O-SO 103 5 min 313 W/m 14,5 C 25,1 C 0,0 km/h (0 Bft)
27.09.2023 16:35 25,1 C 51 % 1017,8 hPa 0,0 l/m 0,0 km/h (0 Bft) O-SO 106 5 min 311 W/m 14,2 C 25,1 C 0,0 km/h (0 Bft)
27.09.2023 16:30 25,2 C 51 % 1017,8 hPa 0,0 l/m 0,0 km/h (0 Bft) SO 126 5 min 288 W/m 14,3 C 25,2 C 0,0 km/h (0 Bft)
27.09.2023 16:25 25,3 C 52 % 1017,9 hPa 0,0 l/m 0,0 km/h (0 Bft) SO 130 5 min 355 W/m 14,7 C 25,3 C 0,0 km/h (0 Bft)
27.09.2023 16:20 25,3 C 52 % 1018,0 hPa 0,0 l/m 0,0 km/h (0 Bft) SO 130 5 min 394 W/m 14,7 C 25,3 C 0,0 km/h (0 Bft)
27.09.2023 16:15 25,5 C 53 % 1018,1 hPa 0,0 l/m 0,0 km/h (0 Bft) O 88 5 min 404 W/m 15,2 C 25,5 C 0,0 km/h (0 Bft)
27.09.2023 16:10 25,4 C 52 % 1018,2 hPa 0,0 l/m 0,0 km/h (0 Bft) S-SO 148 5 min 415 W/m 14,8 C 25,4 C 0,0 km/h (0 Bft)
27.09.2023 16:05 25,3 C 53 % 1018,2 hPa 0,0 l/m 0,0 km/h (0 Bft) O-SO 102 5 min 418 W/m 15,0 C 25,3 C 0,0 km/h (0 Bft)
27.09.2023 16:00 25,3 C 52 % 1018,3 hPa 0,0 l/m 0,0 km/h (0 Bft) O-SO 116 5 min 429 W/m 14,7 C 25,3 C 0,0 km/h (0 Bft)
27.09.2023 15:55 25,3 C 54 % 1018,3 hPa 0,0 l/m 0,0 km/h (0 Bft) S-SO 159 5 min 439 W/m 15,3 C 25,3 C 0,0 km/h (0 Bft)
27.09.2023 15:50 25,2 C 52 % 1018,3 hPa 0,0 l/m 0,0 km/h (0 Bft) O-SO 117 5 min 445 W/m 14,6 C 25,2 C 0,0 km/h (0 Bft)
27.09.2023 15:45 25,2 C 54 % 1018,4 hPa 0,0 l/m 0,0 km/h (0 Bft) O-SO 118 5 min 459 W/m 15,2 C 25,2 C 0,0 km/h (0 Bft)
27.09.2023 15:40 25,1 C 54 % 1018,4 hPa 0,0 l/m 0,0 km/h (0 Bft) O-SO 113 5 min 468 W/m 15,1 C 25,1 C 0,0 km/h (0 Bft)
27.09.2023 15:35 25,1 C 56 % 1018,4 hPa 0,0 l/m 0,0 km/h (0 Bft) S-SO 159 5 min 482 W/m 15,7 C 25,1 C 0,0 km/h (0 Bft)
27.09.2023 15:30 25,0 C 56 % 1018,4 hPa 0,0 l/m 0,0 km/h (0 Bft) O-SO 103 5 min 471 W/m 15,6 C 25,0 C 0,0 km/h (0 Bft)
27.09.2023 15:25 24,9 C 57 % 1018,5 hPa 0,0 l/m 0,0 km/h (0 Bft) S-SO 153 5 min 434 W/m 15,8 C 24,9 C 0,0 km/h (0 Bft)
27.09.2023 15:20 25,1 C 57 % 1018,5 hPa 0,0 l/m 0,0 km/h (0 Bft) O 99 5 min 445 W/m 16,0 C 25,1 C 0,0 km/h (0 Bft)
27.09.2023 15:15 25,0 C 58 % 1018,5 hPa 0,0 l/m 0,0 km/h (0 Bft) SO 140 5 min 452 W/m 16,1 C 25,0 C 0,0 km/h (0 Bft)
27.09.2023 15:10 24,9 C 58 % 1018,6 hPa 0,0 l/m 0,0 km/h (0 Bft) SO 140 5 min 478 W/m 16,1 C 24,9 C 0,0 km/h (0 Bft)
27.09.2023 15:05 25,0 C 56 % 1018,7 hPa 0,0 l/m 0,0 km/h (0 Bft) S-SO 162 5 min 496 W/m 15,6 C 25,0 C 0,0 km/h (0 Bft)
27.09.2023 15:00 24,9 C 56 % 1018,7 hPa 0,0 l/m 0,0 km/h (0 Bft) S-SO 153 5 min 520 W/m 15,5 C 24,9 C 0,0 km/h (0 Bft)
27.09.2023 14:55 24,9 C 56 % 1018,8 hPa 0,0 l/m 0,0 km/h (0 Bft) O-SO 118 5 min 529 W/m 15,5 C 24,9 C 0,0 km/h (0 Bft)
27.09.2023 14:50 24,8 C 58 % 1018,9 hPa 0,0 l/m 0,0 km/h (0 Bft) S 169 5 min 531 W/m 16,0 C 24,8 C 0,0 km/h (0 Bft)
27.09.2023 14:45 24,7 C 57 % 1019,0 hPa 0,0 l/m 0,0 km/h (0 Bft) S-SO 163 5 min 540 W/m 15,6 C 24,7 C 0,0 km/h (0 Bft)
27.09.2023 14:40 24,7 C 57 % 1019,1 hPa 0,0 l/m 0,0 km/h (0 Bft) SO 142 5 min 543 W/m 15,6 C 24,7 C 0,0 km/h (0 Bft)
27.09.2023 14:35 24,6 C 59 % 1019,1 hPa 0,0 l/m 0,0 km/h (0 Bft) O-SO 114 5 min 552 W/m 16,0 C 24,6 C 0,0 km/h (0 Bft)
27.09.2023 14:30 24,4 C 60 % 1019,2 hPa 0,0 l/m 0,0 km/h (0 Bft) SO 124 5 min 557 W/m 16,1 C 24,4 C 0,0 km/h (0 Bft)
27.09.2023 14:25 24,4 C 59 % 1019,2 hPa 0,0 l/m 0,0 km/h (0 Bft) SO 134 5 min 566 W/m 15,9 C 24,4 C 0,0 km/h (0 Bft)
27.09.2023 14:20 24,4 C 61 % 1019,3 hPa 0,0 l/m 0,0 km/h (0 Bft) O-SO 114 5 min 571 W/m 16,4 C 24,4 C 0,0 km/h (0 Bft)
27.09.2023 14:15 24,6 C 59 % 1019,4 hPa 0,0 l/m 0,0 km/h (0 Bft) SO 126 5 min 580 W/m 16,0 C 24,6 C 0,0 km/h (0 Bft)
27.09.2023 14:10 24,7 C 59 % 1019,6 hPa 0,0 l/m 0,0 km/h (0 Bft) S-SO 149 5 min 587 W/m 16,1 C 24,7 C 0,0 km/h (0 Bft)
27.09.2023 14:05 24,6 C 64 % 1019,6 hPa 0,0 l/m 0,0 km/h (0 Bft) S 184 5 min 589 W/m 17,3 C 24,6 C 0,0 km/h (0 Bft)
27.09.2023 14:00 24,2 C 62 % 1019,8 hPa 0,0 l/m 0,0 km/h (0 Bft) O-SO 111 5 min 568 W/m 16,4 C 24,2 C 0,0 km/h (0 Bft)
27.09.2023 13:55 24,0 C 66 % 1019,8 hPa 0,0 l/m 0,0 km/h (0 Bft) O-SO 111 5 min 570 W/m 17,2 C 24,0 C 0,0 km/h (0 Bft)
27.09.2023 13:50 23,8 C 64 % 1019,9 hPa 0,0 l/m 0,0 km/h (0 Bft) O-SO 111 5 min 550 W/m 16,6 C 23,8 C 0,0 km/h (0 Bft)
27.09.2023 13:45 23,7 C 66 % 1020,0 hPa 0,0 l/m 0,0 km/h (0 Bft) O-SO 111 5 min 524 W/m 17,0 C 23,7 C 0,0 km/h (0 Bft)
27.09.2023 13:40 23,4 C 68 % 1020,1 hPa 0,0 l/m 0,0 km/h (0 Bft) W-NW 303 5 min 508 W/m 17,1 C 23,4 C 0,0 km/h (0 Bft)
27.09.2023 13:35 22,9 C 68 % 1020,2 hPa 0,0 l/m 0,0 km/h (0 Bft) W-NW 303 5 min 504 W/m 16,7 C 22,9 C 0,0 km/h (0 Bft)
27.09.2023 13:30 22,6 C 69 % 1020,3 hPa 0,0 l/m 0,0 km/h (0 Bft) W-NW 303 5 min 524 W/m 16,6 C 22,6 C 0,0 km/h (0 Bft)
27.09.2023 13:25 22,3 C 69 % 1020,4 hPa 0,0 l/m 0,0 km/h (0 Bft) W-NW 303 5 min 554 W/m 16,3 C 22,3 C 0,0 km/h (0 Bft)
27.09.2023 13:20 22,2 C 69 % 1020,5 hPa 0,0 l/m 0,0 km/h (0 Bft) W-NW 303 5 min 608 W/m 16,2 C 22,2 C 0,0 km/h (0 Bft)
27.09.2023 13:15 22,1 C 71 % 1020,6 hPa 0,0 l/m 0,0 km/h (0 Bft) W-NW 303 5 min 418 W/m 16,6 C 22,1 C 0,0 km/h (0 Bft)
27.09.2023 13:10 22,1 C 69 % 1020,6 hPa 0,0 l/m 0,0 km/h (0 Bft) W-NW 303 5 min 320 W/m 16,1 C 22,1 C 0,0 km/h (0 Bft)
27.09.2023 13:05 22,1 C 70 % 1020,7 hPa 0,0 l/m 0,0 km/h (0 Bft) W-NW 303 5 min 199 W/m 16,4 C 22,1 C 0,0 km/h (0 Bft)
27.09.2023 13:00 22,1 C 70 % 1020,7 hPa 0,0 l/m 0,0 km/h (0 Bft) W-NW 303 5 min 631 W/m 16,4 C 22,1 C 0,0 km/h (0 Bft)
27.09.2023 12:55 21,8 C 71 % 1020,8 hPa 0,0 l/m 0,0 km/h (0 Bft) W-NW 303 5 min 436 W/m 16,3 C 21,8 C 0,0 km/h (0 Bft)
27.09.2023 12:50 21,6 C 72 % 1020,8 hPa 0,0 l/m 0,0 km/h (0 Bft) W-NW 303 5 min 700 W/m 16,3 C 21,6 C 0,0 km/h (0 Bft)
27.09.2023 12:45 21,6 C 72 % 1020,9 hPa 0,0 l/m 0,0 km/h (0 Bft) W-NW 303 5 min 503 W/m 16,3 C 21,6 C 0,0 km/h (0 Bft)
27.09.2023 12:40 21,8 C 70 % 1020,9 hPa 0,0 l/m 0,0 km/h (0 Bft) W-NW 303 5 min 241 W/m 16,1 C 21,8 C 0,0 km/h (0 Bft)
27.09.2023 12:35 22,1 C 70 % 1021,0 hPa 0,0 l/m 0,0 km/h (0 Bft) W-NW 303 5 min 315 W/m 16,4 C 22,1 C 0,0 km/h (0 Bft)
27.09.2023 12:30 22,1 C 71 % 1020,9 hPa 0,0 l/m 0,0 km/h (0 Bft) SO 129 5 min 468 W/m 16,6 C 22,1 C 0,0 km/h (0 Bft)
27.09.2023 12:25 21,8 C 71 % 1020,9 hPa 0,0 l/m 0,0 km/h (0 Bft) SO 129 5 min 417 W/m 16,3 C 21,8 C 0,0 km/h (0 Bft)
27.09.2023 12:20 21,6 C 74 % 1020,9 hPa 0,0 l/m 0,0 km/h (0 Bft) SO 129 5 min 478 W/m 16,8 C 21,6 C 0,0 km/h (0 Bft)
27.09.2023 12:15 21,3 C 71 % 1020,9 hPa 0,0 l/m 0,0 km/h (0 Bft) SO 129 5 min 657 W/m 15,8 C 21,3 C 0,0 km/h (0 Bft)
27.09.2023 12:10 21,1 C 73 % 1021,0 hPa 0,0 l/m 0,0 km/h (0 Bft) SO 128 5 min 626 W/m 16,1 C 21,1 C 0,0 km/h (0 Bft)
27.09.2023 12:05 20,8 C 74 % 1021,0 hPa 0,0 l/m 0,0 km/h (0 Bft) SO 128 5 min 606 W/m 16,0 C 20,8 C 0,0 km/h (0 Bft)
27.09.2023 12:00 20,6 C 75 % 1020,9 hPa 0,0 l/m 0,0 km/h (0 Bft) SO 128 5 min 594 W/m 16,0 C 20,6 C 0,0 km/h (0 Bft)
27.09.2023 11:55 20,3 C 75 % 1020,7 hPa 0,0 l/m 0,0 km/h (0 Bft) SO 126 5 min 585 W/m 15,7 C 20,3 C 0,0 km/h (0 Bft)
27.09.2023 11:50 20,2 C 76 % 1020,8 hPa 0,0 l/m 0,0 km/h (0 Bft) O-SO 115 5 min 573 W/m 15,8 C 20,2 C 0,0 km/h (0 Bft)
27.09.2023 11:45 19,9 C 77 % 1021,0 hPa 0,0 l/m 0,0 km/h (0 Bft) S-SO 154 5 min 566 W/m 15,7 C 19,9 C 0,0 km/h (0 Bft)
27.09.2023 11:40 19,5 C 78 % 1021,1 hPa 0,0 l/m 0,0 km/h (0 Bft) S-SO 154 5 min 559 W/m 15,6 C 19,5 C 0,0 km/h (0 Bft)
27.09.2023 11:35 19,1 C 78 % 1021,0 hPa 0,0 l/m 0,0 km/h (0 Bft) S 190 5 min 552 W/m 15,2 C 19,1 C 0,0 km/h (0 Bft)
27.09.2023 11:30 18,8 C 79 % 1021,1 hPa 0,0 l/m 0,0 km/h (0 Bft) S 190 5 min 545 W/m 15,1 C 18,8 C 0,0 km/h (0 Bft)
27.09.2023 11:25 18,6 C 81 % 1021,2 hPa 0,0 l/m 0,0 km/h (0 Bft) S-SW 202 5 min 543 W/m 15,3 C 18,6 C 0,0 km/h (0 Bft)
27.09.2023 11:20 18,1 C 82 % 1021,3 hPa 0,0 l/m 0,0 km/h (0 Bft) S-SW 202 5 min 536 W/m 15,0 C 18,1 C 0,0 km/h (0 Bft)
27.09.2023 11:15 17,9 C 81 % 1021,5 hPa 0,0 l/m 0,0 km/h (0 Bft) S-SW 202 5 min 385 W/m 14,6 C 17,9 C 0,0 km/h (0 Bft)
27.09.2023 11:10 17,9 C 80 % 1021,5 hPa 0,0 l/m 0,0 km/h (0 Bft) S-SW 202 0 min 102 W/m 14,4 C 17,9 C 0,0 km/h (0 Bft)
27.09.2023 11:05 17,9 C 81 % 1021,6 hPa 0,0 l/m 0,0 km/h (0 Bft) S-SW 201 5 min 327 W/m 14,6 C 17,9 C 0,0 km/h (0 Bft)
27.09.2023 11:00 17,7 C 82 % 1021,6 hPa 0,0 l/m 0,0 km/h (0 Bft) S-SW 200 5 min 271 W/m 14,6 C 17,7 C 0,0 km/h (0 Bft)
27.09.2023 10:55 17,4 C 83 % 1021,7 hPa 0,0 l/m 0,0 km/h (0 Bft) S-SW 200 5 min 512 W/m 14,5 C 17,4 C 0,0 km/h (0 Bft)
27.09.2023 10:50 17,2 C 83 % 1021,6 hPa 0,0 l/m 0,0 km/h (0 Bft) S-SW 211 5 min 420 W/m 14,3 C 17,2 C 0,0 km/h (0 Bft)
27.09.2023 10:45 17,1 C 83 % 1021,6 hPa 0,0 l/m 0,0 km/h (0 Bft) W 277 5 min 257 W/m 14,2 C 17,1 C 0,0 km/h (0 Bft)
27.09.2023 10:40 16,9 C 84 % 1021,7 hPa 0,0 l/m 0,0 km/h (0 Bft) NW 304 5 min 410 W/m 14,2 C 16,9 C 0,0 km/h (0 Bft)
27.09.2023 10:35 16,6 C 84 % 1021,5 hPa 0,0 l/m 0,0 km/h (0 Bft) NW 304 5 min 432 W/m 13,9 C 16,6 C 0,0 km/h (0 Bft)
27.09.2023 10:30 16,4 C 85 % 1021,5 hPa 0,0 l/m 0,0 km/h (0 Bft) NW 304 5 min 476 W/m 13,9 C 16,4 C 0,0 km/h (0 Bft)
27.09.2023 10:25 16,2 C 84 % 1021,6 hPa 0,0 l/m 0,0 km/h (0 Bft) W 278 5 min 466 W/m 13,5 C 16,2 C 0,0 km/h (0 Bft)
27.09.2023 10:20 16,1 C 85 % 1021,5 hPa 0,0 l/m 0,0 km/h (0 Bft) W 280 5 min 413 W/m 13,6 C 16,1 C 0,0 km/h (0 Bft)
27.09.2023 10:15 15,7 C 85 % 1021,5 hPa 0,0 l/m 0,0 km/h (0 Bft) W 281 5 min 445 W/m 13,2 C 15,7 C 0,0 km/h (0 Bft)
27.09.2023 10:10 15,5 C 85 % 1021,4 hPa 0,0 l/m 0,0 km/h (0 Bft) W 281 5 min 408 W/m 13,0 C 15,5 C 0,0 km/h (0 Bft)
27.09.2023 10:05 15,4 C 86 % 1021,4 hPa 0,0 l/m 0,0 km/h (0 Bft) W-NW 282 5 min 404 W/m 13,1 C 15,4 C 0,0 km/h (0 Bft)
27.09.2023 10:00 15,3 C 86 % 1021,3 hPa 0,0 l/m 0,0 km/h (0 Bft) N-NW 345 5 min 390 W/m 13,0 C 15,3 C 0,0 km/h (0 Bft)
27.09.2023 09:55 14,9 C 86 % 1021,2 hPa 0,0 l/m 0,0 km/h (0 Bft) N-NW 345 5 min 371 W/m 12,6 C 14,9 C 0,0 km/h (0 Bft)
27.09.2023 09:50 14,6 C 86 % 1021,3 hPa 0,0 l/m 0,0 km/h (0 Bft) N-NW 345 5 min 350 W/m 12,3 C 14,6 C 0,0 km/h (0 Bft)
27.09.2023 09:45 14,4 C 86 % 1021,4 hPa 0,0 l/m 0,0 km/h (0 Bft) N-NW 345 5 min 330 W/m 12,1 C 14,4 C 0,0 km/h (0 Bft)
27.09.2023 09:40 14,4 C 86 % 1021,6 hPa 0,0 l/m 0,0 km/h (0 Bft) N-NW 345 5 min 316 W/m 12,1 C 14,4 C 0,0 km/h (0 Bft)
27.09.2023 09:35 14,5 C 86 % 1021,6 hPa 0,0 l/m 0,0 km/h (0 Bft) N-NW 345 5 min 301 W/m 12,2 C 14,5 C 0,0 km/h (0 Bft)
27.09.2023 09:30 14,7 C 86 % 1021,5 hPa 0,0 l/m 0,0 km/h (0 Bft) O-NO 57 5 min 290 W/m 12,4 C 14,7 C 0,0 km/h (0 Bft)
27.09.2023 09:25 14,4 C 86 % 1021,4 hPa 0,0 l/m 0,0 km/h (0 Bft) O-NO 57 5 min 276 W/m 12,1 C 14,4 C 0,0 km/h (0 Bft)
27.09.2023 09:20 14,1 C 86 % 1021,5 hPa 0,0 l/m 0,0 km/h (0 Bft) O-NO 57 5 min 260 W/m 11,8 C 14,1 C 0,0 km/h (0 Bft)
27.09.2023 09:15 13,8 C 86 % 1021,5 hPa 0,0 l/m 0,0 km/h (0 Bft) O-NO 57 5 min 248 W/m 11,5 C 13,8 C 0,0 km/h (0 Bft)
27.09.2023 09:10 13,4 C 86 % 1021,6 hPa 0,0 l/m 0,0 km/h (0 Bft) O-NO 57 5 min 202 W/m 11,1 C 13,4 C 0,0 km/h (0 Bft)
27.09.2023 09:05 13,2 C 86 % 1021,6 hPa 0,0 l/m 0,0 km/h (0 Bft) O-NO 57 5 min 185 W/m 10,9 C 13,2 C 0,0 km/h (0 Bft)
27.09.2023 09:00 12,9 C 87 % 1021,6 hPa 0,0 l/m 0,0 km/h (0 Bft) O-NO 57 5 min 172 W/m 10,8 C 12,9 C 0,0 km/h (0 Bft)
27.09.2023 08:55 12,7 C 87 % 1021,5 hPa 0,0 l/m 0,0 km/h (0 Bft) O-NO 57 5 min 179 W/m 10,6 C 12,7 C 0,0 km/h (0 Bft)
27.09.2023 08:50 12,4 C 86 % 1021,6 hPa 0,0 l/m 0,0 km/h (0 Bft) N-NO 31 5 min 176 W/m 10,1 C 12,4 C 0,0 km/h (0 Bft)
27.09.2023 08:45 12,3 C 87 % 1021,8 hPa 0,0 l/m 0,0 km/h (0 Bft) N-NO 30 5 min 162 W/m 10,2 C 12,3 C 0,0 km/h (0 Bft)
27.09.2023 08:40 12,1 C 87 % 1021,9 hPa 0,0 l/m 0,0 km/h (0 Bft) N-NO 30 0 min 146 W/m 10,0 C 12,1 C 0,0 km/h (0 Bft)
27.09.2023 08:35 11,8 C 87 % 1022,0 hPa 0,0 l/m 0,0 km/h (0 Bft) N-NO 30 0 min 134 W/m 9,7 C 11,8 C 0,0 km/h (0 Bft)
27.09.2023 08:30 11,6 C 87 % 1021,9 hPa 0,0 l/m 0,0 km/h (0 Bft) N-NO 30 0 min 114 W/m 9,5 C 11,6 C 0,0 km/h (0 Bft)
27.09.2023 08:25 11,4 C 87 % 1021,9 hPa 0,0 l/m 0,0 km/h (0 Bft) N-NO 30 0 min 100 W/m 9,3 C 11,4 C 0,0 km/h (0 Bft)
27.09.2023 08:20 11,2 C 87 % 1021,9 hPa 0,0 l/m 0,0 km/h (0 Bft) N-NO 30 0 min 90 W/m 9,1 C 11,2 C 0,0 km/h (0 Bft)
27.09.2023 08:15 10,9 C 87 % 1021,9 hPa 0,0 l/m 0,0 km/h (0 Bft) N-NO 30 0 min 81 W/m 8,8 C 10,9 C 0,0 km/h (0 Bft)
27.09.2023 08:10 10,6 C 87 % 1021,8 hPa 0,0 l/m 0,0 km/h (0 Bft) N-NO 30 0 min 60 W/m 8,5 C 10,6 C 0,0 km/h (0 Bft)
27.09.2023 08:05 10,4 C 87 % 1021,8 hPa 0,0 l/m 0,0 km/h (0 Bft) N-NO 30 0 min 39 W/m 8,3 C 10,4 C 0,0 km/h (0 Bft)
27.09.2023 08:00 10,3 C 87 % 1021,8 hPa 0,0 l/m 0,0 km/h (0 Bft) N-NO 30 0 min 30 W/m 8,2 C 10,3 C 0,0 km/h (0 Bft)
27.09.2023 07:55 10,3 C 87 % 1021,9 hPa 0,0 l/m 0,0 km/h (0 Bft) N-NO 30 0 min 23 W/m 8,2 C 10,3 C 0,0 km/h (0 Bft)
27.09.2023 07:50 10,3 C 87 % 1021,8 hPa 0,0 l/m 0,0 km/h (0 Bft) N-NO 30 0 min 16 W/m 8,2 C 10,3 C 0,0 km/h (0 Bft)
27.09.2023 07:45 10,2 C 87 % 1021,7 hPa 0,0 l/m 0,0 km/h (0 Bft) N-NO 30 0 min 19 W/m 8,1 C 10,2 C 0,0 km/h (0 Bft)
27.09.2023 07:40 10,1 C 86 % 1021,5 hPa 0,0 l/m 0,0 km/h (0 Bft) N-NO 30 0 min 12 W/m 7,9 C 10,1 C 0,0 km/h (0 Bft)
27.09.2023 07:35 10,1 C 86 % 1021,5 hPa 0,0 l/m 0,0 km/h (0 Bft) N-NO 30 0 min 7 W/m 7,9 C 10,1 C 0,0 km/h (0 Bft)
27.09.2023 07:30 10,0 C 86 % 1021,3 hPa 0,0 l/m 0,0 km/h (0 Bft) N-NO 30 0 min 5 W/m 7,8 C 10,0 C 0,0 km/h (0 Bft)
27.09.2023 07:25 9,9 C 87 % 1021,4 hPa 0,0 l/m 0,0 km/h (0 Bft) N-NO 30 0 min 5 W/m 7,8 C 9,9 C 0,0 km/h (0 Bft)
27.09.2023 07:20 9,9 C 86 % 1021,4 hPa 0,0 l/m 0,0 km/h (0 Bft) N-NO 30 0 min 0 W/m 7,7 C 9,9 C 0,0 km/h (0 Bft)
27.09.2023 07:15 10,0 C 86 % 1021,4 hPa 0,0 l/m 0,0 km/h (0 Bft) N-NO 30 0 min 0 W/m 7,8 C 10,0 C 0,0 km/h (0 Bft)
27.09.2023 07:10 10,1 C 86 % 1021,4 hPa 0,0 l/m 0,0 km/h (0 Bft) N-NO 30 0 min 0 W/m 7,9 C 10,1 C 0,0 km/h (0 Bft)
27.09.2023 07:05 10,2 C 87 % 1021,3 hPa 0,0 l/m 0,0 km/h (0 Bft) N-NO 30 0 min 0 W/m 8,1 C 10,2 C 0,0 km/h (0 Bft)
27.09.2023 07:00 10,3 C 87 % 1021,4 hPa 0,0 l/m 0,0 km/h (0 Bft) N-NO 30 0 min 0 W/m 8,2 C 10,3 C 0,0 km/h (0 Bft)
27.09.2023 06:55 10,3 C 87 % 1021,4 hPa 0,0 l/m 0,0 km/h (0 Bft) N-NO 30 0 min 0 W/m 8,2 C 10,3 C 0,0 km/h (0 Bft)
27.09.2023 06:50 10,3 C 86 % 1021,4 hPa 0,0 l/m 0,0 km/h (0 Bft) N-NO 30 0 min 0 W/m 8,1 C 10,3 C 0,0 km/h (0 Bft)
27.09.2023 06:45 10,3 C 86 % 1021,3 hPa 0,0 l/m 0,0 km/h (0 Bft) N-NO 30 0 min 0 W/m 8,1 C 10,3 C 0,0 km/h (0 Bft)
27.09.2023 06:40 10,7 C 86 % 1021,2 hPa 0,0 l/m 0,0 km/h (0 Bft) N-NO 30 0 min 0 W/m 8,5 C 10,7 C 0,0 km/h (0 Bft)
27.09.2023 06:35 11,3 C 86 % 1021,2 hPa 0,0 l/m 0,0 km/h (0 Bft) N-NO 30 0 min 0 W/m 9,0 C 11,3 C 0,0 km/h (0 Bft)
27.09.2023 06:30 11,4 C 87 % 1021,2 hPa 0,0 l/m 0,0 km/h (0 Bft) N-NO 30 0 min 0 W/m 9,3 C 11,4 C 0,0 km/h (0 Bft)
27.09.2023 06:25 11,1 C 87 % 1021,2 hPa 0,0 l/m 0,0 km/h (0 Bft) N-NO 31 0 min 0 W/m 9,0 C 11,1 C 0,0 km/h (0 Bft)
27.09.2023 06:20 10,7 C 87 % 1021,3 hPa 0,0 l/m 0,0 km/h (0 Bft) N-NO 30 0 min 0 W/m 8,6 C 10,7 C 0,0 km/h (0 Bft)
27.09.2023 06:15 10,4 C 87 % 1021,4 hPa 0,0 l/m 0,0 km/h (0 Bft) N-NO 30 0 min 0 W/m 8,3 C 10,4 C 0,0 km/h (0 Bft)
27.09.2023 06:10 9,9 C 87 % 1021,4 hPa 0,0 l/m 0,0 km/h (0 Bft) N-NO 29 0 min 0 W/m 7,8 C 9,9 C 0,0 km/h (0 Bft)
27.09.2023 06:05 9,6 C 86 % 1021,4 hPa 0,0 l/m 0,0 km/h (0 Bft) N-NO 30 0 min 0 W/m 7,4 C 9,6 C 0,0 km/h (0 Bft)
27.09.2023 05:55 9,8 C 87 % 1021,9 hPa 0,0 l/m 0,0 km/h (0 Bft) - - 0 0 min 0 W/m 7,7 C 9,8 C 0,0 km/h (0 Bft)
27.09.2023 05:50 9,8 C 87 % 1022,0 hPa 0,0 l/m 0,0 km/h (0 Bft) - - 0 0 min 0 W/m 7,7 C 9,8 C 0,0 km/h (0 Bft)
27.09.2023 05:45 9,8 C 87 % 1022,0 hPa 0,0 l/m 0,0 km/h (0 Bft) - - 0 0 min 0 W/m 7,7 C 9,8 C 0,0 km/h (0 Bft)
27.09.2023 05:40 9,8 C 87 % 1021,8 hPa 0,0 l/m 0,0 km/h (0 Bft) - - 0 0 min 0 W/m 7,7 C 9,8 C 0,0 km/h (0 Bft)
27.09.2023 05:35 9,8 C 87 % 1021,7 hPa 0,0 l/m 0,0 km/h (0 Bft) - - 0 0 min 0 W/m 7,7 C 9,8 C 0,0 km/h (0 Bft)
27.09.2023 05:30 9,8 C 87 % 1021,8 hPa 0,0 l/m 0,0 km/h (0 Bft) - - 0 0 min 0 W/m 7,7 C 9,8 C 0,0 km/h (0 Bft)
27.09.2023 05:25 9,9 C 87 % 1021,7 hPa 0,0 l/m 0,0 km/h (0 Bft) - - 0 0 min 0 W/m 7,8 C 9,9 C 0,0 km/h (0 Bft)
27.09.2023 05:20 10,0 C 86 % 1021,5 hPa 0,0 l/m 0,0 km/h (0 Bft) - - 0 0 min 0 W/m 7,8 C 10,0 C 0,0 km/h (0 Bft)
27.09.2023 05:15 10,1 C 86 % 1021,6 hPa 0,0 l/m 0,0 km/h (0 Bft) - - 0 0 min 0 W/m 7,9 C 10,1 C 0,0 km/h (0 Bft)
27.09.2023 05:10 10,2 C 86 % 1021,5 hPa 0,0 l/m 0,0 km/h (0 Bft) - - 0 0 min 0 W/m 8,0 C 10,2 C 0,0 km/h (0 Bft)
27.09.2023 05:05 10,3 C 86 % 1021,5 hPa 0,0 l/m 0,0 km/h (0 Bft) - - 0 0 min 0 W/m 8,1 C 10,3 C 0,0 km/h (0 Bft)
27.09.2023 05:00 10,4 C 86 % 1021,5 hPa 0,0 l/m 0,0 km/h (0 Bft) - - 0 0 min 0 W/m 8,2 C 10,4 C 0,0 km/h (0 Bft)
27.09.2023 04:55 10,7 C 86 % 1021,4 hPa 0,0 l/m 0,0 km/h (0 Bft) - - 0 0 min 0 W/m 8,5 C 10,7 C 0,0 km/h (0 Bft)
27.09.2023 04:50 10,8 C 86 % 1021,2 hPa 0,0 l/m 0,0 km/h (0 Bft) - - 0 0 min 0 W/m 8,6 C 10,8 C 0,0 km/h (0 Bft)
27.09.2023 04:45 10,9 C 86 % 1021,2 hPa 0,0 l/m 0,0 km/h (0 Bft) - - 0 0 min 0 W/m 8,7 C 10,9 C 0,0 km/h (0 Bft)
27.09.2023 04:40 11,1 C 86 % 1021,2 hPa 0,0 l/m 0,0 km/h (0 Bft) - - 0 0 min 0 W/m 8,8 C 11,1 C 0,0 km/h (0 Bft)
27.09.2023 04:35 11,2 C 86 % 1021,1 hPa 0,0 l/m 0,0 km/h (0 Bft) - - 0 0 min 0 W/m 8,9 C 11,2 C 0,0 km/h (0 Bft)
27.09.2023 04:30 11,3 C 86 % 1020,9 hPa 0,0 l/m 0,0 km/h (0 Bft) - - 0 0 min 0 W/m 9,0 C 11,3 C 0,0 km/h (0 Bft)
27.09.2023 04:25 11,2 C 86 % 1020,9 hPa 0,0 l/m 0,0 km/h (0 Bft) - - 0 0 min 0 W/m 8,9 C 11,2 C 0,0 km/h (0 Bft)
27.09.2023 04:20 10,8 C 86 % 1020,9 hPa 0,0 l/m 0,0 km/h (0 Bft) - - 0 0 min 0 W/m 8,6 C 10,8 C 0,0 km/h (0 Bft)
27.09.2023 04:15 10,6 C 86 % 1020,8 hPa 0,0 l/m 0,0 km/h (0 Bft) - - 0 0 min 0 W/m 8,4 C 10,6 C 0,0 km/h (0 Bft)
27.09.2023 04:10 10,7 C 86 % 1020,7 hPa 0,0 l/m 0,0 km/h (0 Bft) - - 0 0 min 0 W/m 8,5 C 10,7 C 0,0 km/h (0 Bft)
27.09.2023 04:05 10,9 C 86 % 1020,6 hPa 0,0 l/m 0,0 km/h (0 Bft) - - 0 0 min 0 W/m 8,7 C 10,9 C 0,0 km/h (0 Bft)
27.09.2023 04:00 11,1 C 86 % 1020,8 hPa 0,0 l/m 0,0 km/h (0 Bft) - - 0 0 min 0 W/m 8,8 C 11,1 C 0,0 km/h (0 Bft)
27.09.2023 03:55 11,1 C 86 % 1020,8 hPa 0,0 l/m 0,0 km/h (0 Bft) - - 0 0 min 0 W/m 8,8 C 11,1 C 0,0 km/h (0 Bft)
27.09.2023 03:50 11,2 C 86 % 1020,8 hPa 0,0 l/m 0,0 km/h (0 Bft) - - 0 0 min 0 W/m 8,9 C 11,2 C 0,0 km/h (0 Bft)
27.09.2023 03:45 11,3 C 86 % 1020,9 hPa 0,0 l/m 0,0 km/h (0 Bft) - - 0 0 min 0 W/m 9,0 C 11,3 C 0,0 km/h (0 Bft)
27.09.2023 03:40 11,4 C 86 % 1020,8 hPa 0,0 l/m 0,0 km/h (0 Bft) - - 0 0 min 0 W/m 9,1 C 11,4 C 0,0 km/h (0 Bft)
27.09.2023 03:35 11,5 C 86 % 1020,9 hPa 0,0 l/m 0,0 km/h (0 Bft) - - 0 0 min 0 W/m 9,2 C 11,5 C 0,0 km/h (0 Bft)
27.09.2023 03:30 11,7 C 86 % 1021,0 hPa 0,0 l/m 0,0 km/h (0 Bft) - - 0 0 min 0 W/m 9,4 C 11,7 C 0,0 km/h (0 Bft)
27.09.2023 03:25 11,8 C 86 % 1021,0 hPa 0,0 l/m 0,0 km/h (0 Bft) - - 0 0 min 0 W/m 9,5 C 11,8 C 0,0 km/h (0 Bft)
27.09.2023 03:20 11,8 C 86 % 1021,0 hPa 0,0 l/m 0,0 km/h (0 Bft) - - 0 0 min 0 W/m 9,5 C 11,8 C 0,0 km/h (0 Bft)
27.09.2023 03:15 11,9 C 86 % 1020,9 hPa 0,0 l/m 0,0 km/h (0 Bft) - - 0 0 min 0 W/m 9,6 C 11,9 C 0,0 km/h (0 Bft)
27.09.2023 03:10 12,0 C 86 % 1020,9 hPa 0,0 l/m 0,0 km/h (0 Bft) - - 0 0 min 0 W/m 9,7 C 12,0 C 0,0 km/h (0 Bft)
27.09.2023 03:05 12,2 C 86 % 1021,0 hPa 0,0 l/m 0,0 km/h (0 Bft) - - 0 0 min 0 W/m 9,9 C 12,2 C 0,0 km/h (0 Bft)
27.09.2023 03:00 12,6 C 86 % 1021,0 hPa 0,0 l/m 0,0 km/h (0 Bft) - - 0 0 min 0 W/m 10,3 C 12,6 C 0,0 km/h (0 Bft)
27.09.2023 02:55 12,8 C 86 % 1021,0 hPa 0,0 l/m 0,0 km/h (0 Bft) - - 0 0 min 0 W/m 10,5 C 12,8 C 0,0 km/h (0 Bft)
27.09.2023 02:50 12,7 C 86 % 1021,0 hPa 0,0 l/m 0,0 km/h (0 Bft) - - 0 0 min 0 W/m 10,4 C 12,7 C 0,0 km/h (0 Bft)
27.09.2023 02:45 12,7 C 86 % 1021,0 hPa 0,0 l/m 0,0 km/h (0 Bft) - - 0 0 min 0 W/m 10,4 C 12,7 C 0,0 km/h (0 Bft)
27.09.2023 02:40 12,7 C 86 % 1021,0 hPa 0,0 l/m 0,0 km/h (0 Bft) - - 0 0 min 0 W/m 10,4 C 12,7 C 0,0 km/h (0 Bft)
27.09.2023 02:35 12,5 C 86 % 1021,1 hPa 0,0 l/m 0,0 km/h (0 Bft) - - 0 0 min 0 W/m 10,2 C 12,5 C 0,0 km/h (0 Bft)
27.09.2023 02:30 12,2 C 86 % 1021,1 hPa 0,0 l/m 0,0 km/h (0 Bft) - - 0 0 min 0 W/m 9,9 C 12,2 C 0,0 km/h (0 Bft)
27.09.2023 02:25 12,1 C 86 % 1021,2 hPa 0,0 l/m 0,0 km/h (0 Bft) - - 0 0 min 0 W/m 9,8 C 12,1 C 0,0 km/h (0 Bft)
27.09.2023 02:20 12,1 C 86 % 1021,1 hPa 0,0 l/m 0,0 km/h (0 Bft) - - 0 0 min 0 W/m 9,8 C 12,1 C 0,0 km/h (0 Bft)
27.09.2023 02:15 12,0 C 86 % 1021,4 hPa 0,0 l/m 0,0 km/h (0 Bft) - - 0 0 min 0 W/m 9,7 C 12,0 C 0,0 km/h (0 Bft)
27.09.2023 02:10 12,0 C 86 % 1021,3 hPa 0,0 l/m 0,0 km/h (0 Bft) - - 0 0 min 0 W/m 9,7 C 12,0 C 0,0 km/h (0 Bft)
27.09.2023 02:05 12,0 C 86 % 1021,3 hPa 0,0 l/m 0,0 km/h (0 Bft) - - 0 0 min 0 W/m 9,7 C 12,0 C 0,0 km/h (0 Bft)
27.09.2023 02:00 12,0 C 86 % 1021,4 hPa 0,0 l/m 0,0 km/h (0 Bft) - - 0 0 min 0 W/m 9,7 C 12,0 C 0,0 km/h (0 Bft)
27.09.2023 01:55 12,1 C 86 % 1021,5 hPa 0,0 l/m 0,0 km/h (0 Bft) - - 0 0 min 0 W/m 9,8 C 12,1 C 0,0 km/h (0 Bft)
27.09.2023 01:50 12,2 C 86 % 1021,4 hPa 0,0 l/m 0,0 km/h (0 Bft) - - 0 0 min 0 W/m 9,9 C 12,2 C 0,0 km/h (0 Bft)
27.09.2023 01:45 12,2 C 86 % 1021,4 hPa 0,0 l/m 0,0 km/h (0 Bft) - - 0 0 min 0 W/m 9,9 C 12,2 C 0,0 km/h (0 Bft)
27.09.2023 01:40 12,3 C 86 % 1021,3 hPa 0,0 l/m 0,0 km/h (0 Bft) - - 0 0 min 0 W/m 10,0 C 12,3 C 0,0 km/h (0 Bft)
27.09.2023 01:35 12,4 C 86 % 1021,3 hPa 0,0 l/m 0,0 km/h (0 Bft) - - 0 0 min 0 W/m 10,1 C 12,4 C 0,0 km/h (0 Bft)
27.09.2023 01:30 12,4 C 86 % 1021,3 hPa 0,0 l/m 0,0 km/h (0 Bft) - - 0 0 min 0 W/m 10,1 C 12,4 C 0,0 km/h (0 Bft)
27.09.2023 01:25 12,4 C 86 % 1021,1 hPa 0,0 l/m 0,0 km/h (0 Bft) - - 0 0 min 0 W/m 10,1 C 12,4 C 0,0 km/h (0 Bft)
27.09.2023 01:20 12,2 C 86 % 1021,0 hPa 0,0 l/m 0,0 km/h (0 Bft) - - 0 0 min 0 W/m 9,9 C 12,2 C 0,0 km/h (0 Bft)
27.09.2023 01:15 12,2 C 86 % 1020,8 hPa 0,0 l/m 0,0 km/h (0 Bft) - - 0 0 min 0 W/m 9,9 C 12,2 C 0,0 km/h (0 Bft)
27.09.2023 01:10 12,2 C 86 % 1020,7 hPa 0,0 l/m 0,0 km/h (0 Bft) - - 0 0 min 0 W/m 9,9 C 12,2 C 0,0 km/h (0 Bft)
27.09.2023 01:05 12,1 C 86 % 1020,7 hPa 0,0 l/m 0,0 km/h (0 Bft) - - 0 0 min 0 W/m 9,8 C 12,1 C 0,0 km/h (0 Bft)
27.09.2023 01:00 12,1 C 86 % 1020,8 hPa 0,0 l/m 0,0 km/h (0 Bft) - - 0 0 min 0 W/m 9,8 C 12,1 C 0,0 km/h (0 Bft)
27.09.2023 00:55 12,2 C 86 % 1020,9 hPa 0,0 l/m 0,0 km/h (0 Bft) - - 0 0 min 0 W/m 9,9 C 12,2 C 0,0 km/h (0 Bft)
27.09.2023 00:50 12,2 C 86 % 1021,0 hPa 0,0 l/m 0,0 km/h (0 Bft) - - 0 0 min 0 W/m 9,9 C 12,2 C 0,0 km/h (0 Bft)
27.09.2023 00:45 12,2 C 86 % 1021,0 hPa 0,0 l/m 0,0 km/h (0 Bft) - - 0 0 min 0 W/m 9,9 C 12,2 C 0,0 km/h (0 Bft)
27.09.2023 00:40 12,2 C 86 % 1020,9 hPa 0,0 l/m 0,0 km/h (0 Bft) - - 0 0 min 0 W/m 9,9 C 12,2 C 0,0 km/h (0 Bft)
27.09.2023 00:35 12,2 C 86 % 1021,1 hPa 0,0 l/m 0,0 km/h (0 Bft) - - 0 0 min 0 W/m 9,9 C 12,2 C 0,0 km/h (0 Bft)
27.09.2023 00:30 12,1 C 86 % 1021,1 hPa 0,0 l/m 0,0 km/h (0 Bft) - - 0 0 min 0 W/m 9,8 C 12,1 C 0,0 km/h (0 Bft)
27.09.2023 00:25 11,9 C 86 % 1021,0 hPa 0,0 l/m 0,0 km/h (0 Bft) - - 0 0 min 0 W/m 9,6 C 11,9 C 0,0 km/h (0 Bft)
27.09.2023 00:20 11,9 C 86 % 1021,0 hPa 0,0 l/m 0,0 km/h (0 Bft) - - 0 0 min 0 W/m 9,6 C 11,9 C 0,0 km/h (0 Bft)
27.09.2023 00:15 12,1 C 86 % 1021,0 hPa 0,0 l/m 0,0 km/h (0 Bft) - - 0 0 min 0 W/m 9,8 C 12,1 C 0,0 km/h (0 Bft)
27.09.2023 00:10 12,3 C 86 % 1021,1 hPa 0,0 l/m 0,0 km/h (0 Bft) - - 0 0 min 0 W/m 10,0 C 12,3 C 0,0 km/h (0 Bft)
27.09.2023 00:05 12,4 C 86 % 1021,2 hPa 0,0 l/m 0,0 km/h (0 Bft) - - 0 0 min 0 W/m 10,1 C 12,4 C 0,0 km/h (0 Bft)
27.09.2023 00:00 12,4 C 86 % 1021,1 hPa 0,0 l/m 0,0 km/h (0 Bft) - - 0 0 min 0 W/m 10,1 C 12,4 C 0,0 km/h (0 Bft)
26.09.2023 23:55 12,6 C 86 % 1021,1 hPa 0,0 l/m 0,0 km/h (0 Bft) - - 0 0 min 0 W/m 10,3 C 12,6 C 0,0 km/h (0 Bft)
26.09.2023 23:50 12,7 C 86 % 1021,1 hPa 0,0 l/m 0,0 km/h (0 Bft) - - 0 0 min 0 W/m 10,4 C 12,7 C 0,0 km/h (0 Bft)
26.09.2023 23:45 12,8 C 86 % 1021,1 hPa 0,0 l/m 0,0 km/h (0 Bft) - - 0 0 min 0 W/m 10,5 C 12,8 C 0,0 km/h (0 Bft)
26.09.2023 23:40 12,8 C 86 % 1021,1 hPa 0,0 l/m 0,0 km/h (0 Bft) - - 0 0 min 0 W/m 10,5 C 12,8 C 0,0 km/h (0 Bft)
26.09.2023 23:35 12,9 C 86 % 1021,0 hPa 0,0 l/m 0,0 km/h (0 Bft) - - 0 0 min 0 W/m 10,6 C 12,9 C 0,0 km/h (0 Bft)
26.09.2023 23:30 12,6 C 86 % 1021,1 hPa 0,0 l/m 0,0 km/h (0 Bft) - - 0 0 min 0 W/m 10,3 C 12,6 C 0,0 km/h (0 Bft)
26.09.2023 23:25 12,3 C 86 % 1021,0 hPa 0,0 l/m 0,0 km/h (0 Bft) - - 0 0 min 0 W/m 10,0 C 12,3 C 0,0 km/h (0 Bft)
26.09.2023 23:20 12,4 C 86 % 1020,9 hPa 0,0 l/m 0,0 km/h (0 Bft) - - 0 0 min 0 W/m 10,1 C 12,4 C 0,0 km/h (0 Bft)
26.09.2023 23:15 12,5 C 86 % 1021,0 hPa 0,0 l/m 0,0 km/h (0 Bft) - - 0 0 min 0 W/m 10,2 C 12,5 C 0,0 km/h (0 Bft)
26.09.2023 23:10 12,6 C 86 % 1021,1 hPa 0,0 l/m 0,0 km/h (0 Bft) - - 0 0 min 0 W/m 10,3 C 12,6 C 0,0 km/h (0 Bft)
26.09.2023 23:05 12,7 C 86 % 1021,1 hPa 0,0 l/m 0,0 km/h (0 Bft) - - 0 0 min 0 W/m 10,4 C 12,7 C 0,0 km/h (0 Bft)
26.09.2023 23:00 12,8 C 86 % 1021,2 hPa 0,0 l/m 0,0 km/h (0 Bft) S-SO 149 0 min 0 W/m 10,5 C 12,8 C 0,0 km/h (0 Bft)
26.09.2023 22:55 12,9 C 86 % 1021,2 hPa 0,0 l/m 0,0 km/h (0 Bft) S-SO 149 0 min 0 W/m 10,6 C 12,9 C 0,0 km/h (0 Bft)
26.09.2023 22:50 13,1 C 85 % 1021,2 hPa 0,0 l/m 0,0 km/h (0 Bft) S-SO 149 0 min 0 W/m 10,6 C 13,1 C 0,0 km/h (0 Bft)
26.09.2023 22:45 13,2 C 85 % 1021,1 hPa 0,0 l/m 0,0 km/h (0 Bft) S-SO 149 0 min 0 W/m 10,7 C 13,2 C 0,0 km/h (0 Bft)
26.09.2023 22:40 13,4 C 85 % 1021,1 hPa 0,0 l/m 0,0 km/h (0 Bft) S-SO 149 0 min 0 W/m 10,9 C 13,4 C 0,0 km/h (0 Bft)
26.09.2023 22:35 13,6 C 85 % 1021,0 hPa 0,0 l/m 0,0 km/h (0 Bft) S-SO 149 0 min 0 W/m 11,1 C 13,6 C 0,0 km/h (0 Bft)
26.09.2023 22:30 13,6 C 85 % 1021,0 hPa 0,0 l/m 0,0 km/h (0 Bft) S-SO 149 0 min 0 W/m 11,1 C 13,6 C 0,0 km/h (0 Bft)
26.09.2023 22:25 13,8 C 85 % 1021,0 hPa 0,0 l/m 0,0 km/h (0 Bft) S-SO 149 0 min 0 W/m 11,3 C 13,8 C 0,0 km/h (0 Bft)
26.09.2023 22:20 13,9 C 85 % 1021,0 hPa 0,0 l/m 0,0 km/h (0 Bft) S-SO 149 0 min 0 W/m 11,4 C 13,9 C 0,0 km/h (0 Bft)
26.09.2023 22:15 14,2 C 85 % 1020,9 hPa 0,0 l/m 0,0 km/h (0 Bft) S-SO 149 0 min 0 W/m 11,7 C 14,2 C 0,0 km/h (0 Bft)
26.09.2023 22:10 14,3 C 85 % 1021,0 hPa 0,0 l/m 0,0 km/h (0 Bft) S-SO 149 0 min 0 W/m 11,8 C 14,3 C 0,0 km/h (0 Bft)
26.09.2023 22:05 14,5 C 85 % 1021,0 hPa 0,0 l/m 0,0 km/h (0 Bft) S-SO 149 0 min 0 W/m 12,0 C 14,5 C 0,0 km/h (0 Bft)
26.09.2023 22:00 14,7 C 85 % 1021,0 hPa 0,0 l/m 0,0 km/h (0 Bft) S-SO 149 0 min 0 W/m 12,2 C 14,7 C 0,0 km/h (0 Bft)
_ Min-Zeit 06:05 16:30 18:20 - 22:00 - - - - 06:05 06:05 22:00
Minimum _ 9,6 C 51 % 1017,1 hPa - 0,0 km/h (0 Bft) - - - - 7,4 C 9,6 C 0,0 km/h (0 Bft)
_ Max-Zeit 16:15 05:25 05:45 22:00 22:00 - - 08:45 12:50 14:05 16:15 22:00
Maximum _ 25,6 C 87 % 1022,0 hPa 0,0 l/m 0,0 km/h
S-SO (0 Bft)
- - 5 min 700 W/m 17,3 C 25,5 C 0,0 km/h
- - (0 Bft)
Durchschnitt _ 16,4 C 78 % 1020,2 hPa #0,0 l/m 0,0 km/h (0 Bft) - - - #8:30 h 325 W/m 12,3 C 16,4 C 0,0 km/h (0 Bft)